Regional Weather Roundup
Issued by NWS

Home | Current Version | Previous Version | Graphics & Text | Print | Product List | Glossary On
Versions: 1 2 3 4 5 6 7 8 9 10 11 12 13 14 15 16 17 18 19 20 21 22 23 24 25 26 27 28 29 30 31 32 33 34 35 36 37 38 39 40 41 42 43 44 45 46 47 48 49 50
000
ASUS45 KSLC 051610
RWRUT

UTAH REGIONAL WEATHER ROUNDUP
NATIONAL WEATHER SERVICE SALT LAKE CITY UT
900 AM MST THU MAR 05 2015

UTZ001>011-023>025-051700-

NORTHERN UTAH

CITY           SKY/WX    TMP DP  RH WIND       PRES   REMARKS
BRIGHAM CITY   SUNNY     27  22  80 CALM      30.46R
DUGWAY         MOSUNNY   31  20  62 S5        30.44R WCI  26
HILL AFB       MOSUNNY   25  12  58 E13       30.42R WCI  14
LOGAN          SUNNY     26  19  74 CALM      30.44R
OGDEN          MOSUNNY   28  15  58 S6        30.43R WCI  22
PROVO AIRPORT  SUNNY     28  19  69 SE6       30.46R WCI  22
SALT LAKE CITY PTSUNNY   32  21  64 S9        30.43R WCI  24
VERNAL         MOSUNNY   25  13  60 CALM      30.41R
WENDOVER       SUNNY     28  19  69 SE5       30.43R WCI  23
HEBER CITY     MOSUNNY   19  12  73 CALM      30.44R
WEST JORDAN    SUNNY     34  21  60 S14       30.43R WCI  24

$$

UTZ012>022-026-027-051700-

SOUTHERN/CENTRAL UTAH

CITY           SKY/WX    TMP DP  RH WIND       PRES   REMARKS
BLANDING       SUNNY     31  15  52 CALM      30.47S
BRYCE CANYON   SUNNY      2  -3  80 W8        30.38R WCI -12
CEDAR CITY     SUNNY     16  11  80 SW6       30.38S WCI   7
DELTA          SUNNY     29  20  71 CALM      30.44S
HANKSVILLE     SUNNY     32  27  80 CALM      30.47R
MILFORD        SUNNY     24  17  74 S6        30.42R WCI  17
MOAB/CYNLANDS  SUNNY     32  15  49 SE8       30.42R WCI  25
PRICE          SUNNY     27  14  58 SE5       30.39R WCI  22
ST GEORGE      MOSUNNY   37  27  65 S5        30.47R WCI  34
KANAB          SUNNY     32  12  43 NW14      30.45R WCI  22

$$

REGIONAL REPORTS     COLORADO/ARIZONA

CITY           SKY/WX    TMP DP  RH WIND       PRES   REMARKS
CRAIG, CO      SUNNY     13   4  67 W3        30.40R
GRAND JUNCTION SUNNY     29   9  43 E10       30.44R WCI  20
RIFLE          SUNNY     23   7  50 VRB5      30.46R WCI  17
MONTROSE       SUNNY     24   9  52 SE7       30.46R WCI  16
CORTEZ         SUNNY     26   9  48 CALM      30.41R
PAGE, AZ       SUNNY     37  21  52 N5        30.43R WCI  33
GRAND CANYON   SUNNY     21  16  81 CALM      30.39R
KINGMAN        SUNNY     42  26  53 NE5       30.38R
FLAGSTAFF      SUNNY     29  10  45 E12       30.38R WCI  19

$$

REGIONAL REPORTS    NEVADA/IDAHO/WYOMING

CITY           SKY/WX    TMP DP  RH WIND       PRES   REMARKS
LAS VEGAS, NV  SUNNY     47  28  47 S8        30.37R
ELY            MOSUNNY   22  14  71 S9        30.40R WCI  12
ELKO           SUNNY     24  13  62 CALM      30.43R
POCATELLO, ID  SUNNY     31  21  66 N7        30.40R WCI  24
EVANSTON, WY   MOSUNNY   18   9  68 SW12      30.35R WCI   5
ROCK SPRINGS   MOSUNNY   21  10  62 W28       30.30R WCI   3

$$


USA.gov is the U.S. government's official web portal to all federal, state and local government web resources and services.